Regional Weather Roundup
Issued by NWS

Home | Current Version | Previous Version | Text Only | Print | Product List | Glossary On
Versions: 1 2 3 4 5 6 7 8 9 10 11 12 13 14 15 16 17 18 19 20 21 22 23 24 25 26 27 28 29 30 31 32 33 34 35 36 37 38 39 40 41 42 43 44 45 46 47 48 49 50
000
ASHW40 PHFO 062030
RWRHI

WEATHER ROUNDUP FOR HAWAII
NATIONAL WEATHER SERVICE HONOLULU HI
1000 AM HST FRI MAR 06 2015

THIS IS AN AUTOMATED REPORT THAT HAS NOT BEEN QUALITY CONTROLLED.

NOTE..."FAIR" INDICATES FEW OR NO CLOUDS BELOW 12,000 FEET WITH NO
SIGNIFICANT WEATHER AND/OR OBSTRUCTIONS TO VISIBILITY.

* - THESE SITES REPORT LIMITED FIELDS

HIZ001>004-062100-
KAUAI-NIIHAU-

CITY           SKY/WX    TMP DP  RH WIND       PRES   REMARKS
LIHUE APT      MOSUNNY   75  53  46 NE24G31   30.02R
PORT ALLEN*      N/A     75 N/A N/A S1G9        N/A
POIPU*           N/A     75 N/A N/A N8G18       N/A
PRINCEVILLE*     N/A     70 N/A N/A MISG        N/A
KOKOLE POINT*  NOT AVBL
MOLOAA DAIRY*  NOT AVBL
WAIMEA HTS*    NOT AVBL
PUU OPAE*      NOT AVBL
PUU LUA*       NOT AVBL
MAKAHA RIDGE*  NOT AVBL
$$

HIZ005>011-062100-
OAHU-

CITY           SKY/WX    TMP DP  RH WIND       PRES   REMARKS
HONOLULU       MOSUNNY   71  58  63 N15G24    29.96R
KALAELOA       SUNNY     73  57  57 N13G22    29.97R
KANEOHE MCB    CLOUDY    72  60  66 N20       29.97R
WHEELER FIELD  FAIR      69  58  67 N14       29.97R
BELLOWS*         N/A    N/A N/A N/A N15G26      N/A
KAHUKU*          N/A    N/A N/A N/A N5G10       N/A
WHEELER*       NOT AVBL
WAIANAE HARBOR NOT AVBL
DILLINGHAM*      N/A     70  59  68 MISG        N/A
KAHUKU TRN*      N/A     64  52  63 NE9G18      N/A
KAWAILOA*        N/A     64  59  82 VRB9G18     N/A
KII*             N/A     72  59  64 N16G22      N/A
MAKUA RANGE*     N/A     70  57  64 E18G29      N/A
OAHU FOREST NW NOT AVBL
SCHOFIELD BRK*   N/A     61  52  72 MISG        N/A
SCHOFIELD S*   NOT AVBL
WAIANAE VLY*   NOT AVBL
KUAOKALA*      NOT AVBL
HONOULIUULI*   NOT AVBL
MOKUOLOE IS*   NOT AVBL
PALEHUA*       NOT AVBL
WAIAWA PHB*    NOT AVBL
$$

HIZ012>013-062100-
MOLOKAI-

CITY           SKY/WX    TMP DP  RH WIND       PRES   REMARKS
MOLOKAI AIRPT  LGT RAIN  70  63  78 N16G25    29.97S
KALAUPAPA      NOT AVBL
MAKAPULAPAI*   NOT AVBL
MOLOKAI 1*     NOT AVBL
PUU ALII*        N/A     52  52 100 E2G13       N/A
$$

HIZ016-062100-
KAHOOLAWE-

CITY           SKY/WX    TMP DP  RH WIND       PRES   REMARKS
KAHOOLAWE*     NOT AVBL
HAKIOAWA*        N/A     67  64  90 MISG      30.34R
HONOKANAIA*      N/A     73  63  71 N23G40    29.93R
KANELOA*         N/A     70  64  83 MISG      29.11S
KEALIALALO*    NOT AVBL
LUA MAKIKA*    NOT AVBL
$$

HIZ014>015-062100-
LANAI-

CITY           SKY/WX    TMP DP  RH WIND       PRES   REMARKS
LANAI CITY     FAIR      69  60  73 NE32      29.96S
LANAI 1*       NOT AVBL
$$

HIZ017>028-062100-
MAUI-

CITY           SKY/WX    TMP DP  RH WIND       PRES   REMARKS
KAHULUI        LGT RAIN  71  64  78 NE18G26   29.97S
KAPALUA-W MAUI LGT RAIN  66  63  88 N17G25    29.97R
HANA AIRPORT   LGT RAIN  66  66 100 NW20      30.00F VSB 1/2
HANA*            N/A     66 N/A N/A NW6G12      N/A
HALEAKALA SUMM   N/A     41  39  93 E5G21       N/A
MAALAEA BAY*   NOT AVBL
HALEAKALA*     NOT AVBL
KAUPO GAP*     NOT AVBL
KULA 1*          N/A     54  50  85 NW3         N/A
$$

HIZ023>026-062100-
BIG ISLAND OF HAWAII COAST AND LOWER SLOPES-

CITY           SKY/WX    TMP DP  RH WIND       PRES   REMARKS
KAILUA KONA    CLOUDY    78  65  63 N20       29.87S
HILO           CLOUDY    73  66  78 N8        29.93S
HONOKAA*       NOT AVBL
KAWAIHAE MWT*    N/A     79 N/A N/A SW3         N/A
KAWAIHAE*        N/A     75 N/A N/A SW3         N/A
SOUTH POINT*     N/A     75 N/A N/A E1G9        N/A
UPOLU AIRPORT*   N/A    N/A N/A N/A N17G23      N/A
KAMUELA*       MOCLDY    64  61  88 N14       29.99S
HAKALAU*         N/A     53  53  98 NE6         N/A
KALOKO-HONOKO*   N/A     81  64  57 NW7G15    29.87R
PALI 2*          N/A     70  57  64 N12         N/A
KEALAKOMO*       N/A    N/A N/A N/A N23G38      N/A
KAUPULEHU*     NOT AVBL
KAPAPALA*        N/A     74  61  63 CALM        N/A
LOWER KAHUKU*    N/A     68  55  64 SE2         N/A
PUHE CS*         N/A     75  63  64 SW2         N/A
PUHO CS*         N/A     77  61  58 SW2         N/A
PTA KEAMUKU*     N/A     64  57  77 CALM        N/A
WAIKOLOA*      NOT AVBL
$$

HIZ027>028-062100-
BIG ISLAND OF HAWAII INTERIOR AND SUMMMITS-

CITY           SKY/WX    TMP DP  RH WIND       PRES   REMARKS
BRADSHAW FIELD CLOUDY    60  47  61 SW2       30.17R
MK VISITOR CEN NOT AVBL
MAUNA KEA*       N/A     32 -15  12 NW51        N/A  WCI  14
MAUNA LOA*       N/A     46 -15   7 MISG        N/A
MAUNA LOA 1*   NOT AVBL
PTA KIPUKA*      N/A     63  50  63 N5G12       N/A
PTA RANGE 17*    N/A     61  50  67 W7          N/A
PTA WEST*        N/A     64  50  59 NW7         N/A
NENE CABIN*      N/A     55  46  71 S3G10       N/A
AHUMOA*        NOT AVBL
PTA PORTABLE*  NOT AVBL
PUU MALI*      NOT AVBL
$$

HIC003-062100-
NORTHWEST ISLANDS-

CITY           SKY/WX    TMP DP  RH WIND       PRES   REMARKS
MIDWAY ISLAND  MOSUNNY   63  55  77 E23G29    30.36S
MIDWAY NOS*    NOT AVBL
FRENCH FRIGATE NOT AVBL
$$

PHZ110>124-180-062100-
BUOY REPORTS

STATION/POSITION TIME  TEMP    WIND        PRES    WAVE   SWELL
                       AIR SEA DIR/SP/G            HT/PER HT/DIR
                 (UTC) (F)     (DEG/KT/KT) (MB)    (FT/S) (FT/D)
BUOY 51001       NOT AVBL
BUOY 51101       2000   66 73   20/ 21/ 27 1019.4R  11/ 9
BUOY 51100       2000   68 74   20/ 17/ 21 1014.3R   9/ 9   7/ 30
BUOY 51003       2000   74 77   50/ 21/ 25 1013.5R  10/ 8   7
BUOY 51004       1858   76 78   40/ 16/ 17 1010.4F   7/10   5/ 10
BARBERS PT BUOY  NOT AVBL
WAIMEA BAY BUOY  2000      76                N/A     8/ 9   3/340
KAILUA BAY BUOY  2000      75                N/A     8/10   3/ 20
LANAI BUOY       2000      76                N/A     4/10   2/240
BARBERS PT 2     2000      77                N/A     3/13   2/230
PAUWELA MAUI     2000      74                N/A     9/ 9   3/350
HILO             2000      77                N/A     7/ 9   3
KANEOHE BAY BUOY 2000      75                N/A     8/10   3/ 10
HANALEI KAUAI    NOT AVBL
KAHULUI HARBOR   2000   71 74   20/ 18/ 21 1014.6S
HONOLULU HARBOR  2000   72 76   10/  3/ 12 1014.0R
KILO NALU        NOT AVBL
HILO HARBOR      2000   71 76   10/  6/  8 1013.1R
MOKUOLOE         2000   71 74   10/ 16/ 18 1015.4R
NAWILIWILI       2000   71 78   20/ 19/ 24 1015.9F
WHOTS BUOY       NOT AVBL
BUOY 51028       NOT AVBL
$$

......................KEY........................................
  SKY/WX - SKY CONDITIONS/PRESENT WEATHER
  TMP    - TEMPERATURE IN FAHRENHEIT
  DWPT   - DEWPOINT IN FAHRENHEIT
  RH     - RELATIVE HUMIDITY IN PERCENT
  WIND   - DIRECTION AND SPEED /MPH FOR ISLANDS...KTS FOR BUOYS/
  PRES   - MEAN SEA LEVEL PRESSURE IN INCHES OF HG
  VSB    - VISIBILITY IN MILES
  HX     - HEAT INDEX
  WCI    - WIND CHILL INDEX
  VRB    - VARIABLE WIND DIRECTION
  N/A    - NOT AVAILABLE



USA.gov is the U.S. government's official web portal to all federal, state and local government web resources and services.